Location: Bothwell
(42.3833°S, 147.0000°E)
Time: 01:13:22
(UTC+10:00)

BEESAT 2 - Visible Passes

Search period start: 01 October 2022 23:00
Search period end: 12 October 2022 00:00
Orbit: 476 x 507 km, 64.9° (Epoch: 30 September)

Date Brightness Start Highest point End Pass type
(mag) Time Alt. Az. Time Alt. Az. Time Alt. Az.
02 Oct ? 05:05:32 10° SSE 05:06:28 11° SE 05:07:24 10° SE visible
04 Oct ? 05:53:38 10° SSW 05:57:21 58° SE 06:01:02 10° NE visible
04 Oct ? 21:16:21 10° NNW 21:18:38 35° NNW 21:18:38 35° NNW visible
05 Oct ? 05:30:13 10° SSW 05:33:52 49° SE 05:37:30 10° NE visible
05 Oct ? 20:52:55 10° NNW 20:56:40 66° ENE 21:00:26 10° SE visible
05 Oct ? 22:32:04 10° WSW 22:34:11 14° SW 22:36:18 10° S visible
06 Oct ? 05:06:48 10° SSW 05:10:23 41° SE 05:13:56 10° NE visible
06 Oct ? 20:29:30 10° NNW 20:33:11 55° ENE 20:36:54 10° SE visible
06 Oct ? 22:08:12 10° W 22:10:37 16° SW 22:13:02 10° S visible
07 Oct ? 04:43:21 10° SSW 04:46:51 35° SE 04:50:18 10° ENE visible
07 Oct ? 20:06:05 10° NNW 20:09:42 46° ENE 20:13:20 10° SE visible
07 Oct ? 21:44:22 10° W 21:47:02 18° SW 21:49:43 10° S visible
08 Oct ? 04:19:55 10° SSW 04:23:18 30° SE 04:26:38 10° ENE visible
08 Oct ? 05:57:17 10° WSW 06:00:15 22° WNW 06:03:11 10° NNW visible
08 Oct ? 21:20:33 10° W 21:23:26 20° SW 21:26:20 10° S visible
09 Oct ? 03:56:28 10° SSW 03:59:42 27° SE 04:02:55 10° ENE visible
09 Oct ? 05:33:35 10° WSW 05:36:45 26° WNW 05:39:54 10° N visible
09 Oct ? 20:56:45 10° W 20:59:50 23° SW 21:02:54 10° S visible
10 Oct ? 03:33:01 10° S 03:36:06 23° SE 03:39:09 10° ENE visible
10 Oct ? 05:09:54 10° SW 05:13:13 31° WNW 05:16:33 10° N visible
10 Oct ? 20:32:58 10° WNW 20:36:12 26° SW 20:39:27 10° SSE visible
11 Oct ? 20:09:11 10° WNW 20:12:34 30° SW 20:15:57 10° SSE visible
